TimeEST,TemperatureF,Dew PointF,Humidity,Sea Level PressureIn,VisibilityMPH,Wind Direction,Wind SpeedMPH,Gust SpeedMPH,PrecipitationIn,Events,Conditions,WindDirDegrees,DateUTC
12:54 AM,34.0,27.0,75,30.42,10.0,Calm,Calm,-,N/A,,Clear,0,2012-11-15 05:54:00
1:54 AM,34.0,28.0,79,30.39,10.0,Calm,Calm,-,N/A,,Clear,0,2012-11-15 06:54:00
2:54 AM,34.0,28.0,79,30.39,10.0,Calm,Calm,-,N/A,,Clear,0,2012-11-15 07:54:00
3:54 AM,34.0,26.1,73,30.39,10.0,Calm,Calm,-,N/A,,Clear,0,2012-11-15 08:54:00
4:54 AM,33.1,26.1,75,30.39,10.0,Calm,Calm,-,N/A,,Clear,0,2012-11-15 09:54:00
5:54 AM,30.9,26.1,82,30.40,10.0,Calm,Calm,-,N/A,,Clear,0,2012-11-15 10:54:00
6:54 AM,28.4,24.8,86,30.38,10.0,Calm,Calm,-,N/A,,Clear,0,2012-11-15 11:54:00
7:54 AM,30.0,26.1,85,30.41,9.0,Calm,Calm,-,N/A,,Clear,0,2012-11-15 12:54:00
8:54 AM,35.1,28.0,76,30.42,10.0,Calm,Calm,-,N/A,,Clear,0,2012-11-15 13:54:00
9:54 AM,39.9,28.0,63,30.41,10.0,Calm,Calm,-,N/A,,Partly Cloudy,0,2012-11-15 14:54:00
10:54 AM,43.0,28.0,56,30.40,10.0,NNE,6.9,-,N/A,,Clear,20,2012-11-15 15:54:00
11:54 AM,45.0,28.0,52,30.36,10.0,NE,3.5,-,N/A,,Clear,40,2012-11-15 16:54:00
12:54 PM,45.0,28.0,52,30.34,10.0,SSE,3.5,-,N/A,,Clear,160,2012-11-15 17:54:00
1:54 PM,46.0,27.0,47,30.32,10.0,Calm,Calm,-,N/A,,Clear,0,2012-11-15 18:54:00
2:54 PM,46.9,28.0,48,30.30,10.0,ESE,6.9,-,N/A,,Clear,120,2012-11-15 19:54:00
3:54 PM,46.9,28.0,48,30.30,10.0,ESE,4.6,-,N/A,,Clear,120,2012-11-15 20:54:00
4:54 PM,46.9,26.1,44,30.30,10.0,Calm,Calm,-,N/A,,Clear,0,2012-11-15 21:54:00
5:54 PM,44.1,28.9,55,30.31,10.0,SSE,3.5,-,N/A,,Clear,160,2012-11-15 22:54:00
6:54 PM,42.1,28.0,58,30.32,10.0,Calm,Calm,-,N/A,,Partly Cloudy,0,2012-11-15 23:54:00
7:54 PM,39.9,28.0,63,30.33,10.0,Calm,Calm,-,N/A,,Partly Cloudy,0,2012-11-16 00:54:00
8:54 PM,39.0,28.9,67,30.33,10.0,Calm,Calm,-,N/A,,Clear,0,2012-11-16 01:54:00
9:54 PM,36.0,28.0,73,30.33,10.0,Calm,Calm,-,N/A,,Clear,0,2012-11-16 02:54:00
10:54 PM,35.1,28.0,76,30.33,10.0,Calm,Calm,-,N/A,,Clear,0,2012-11-16 03:54:00
11:54 PM,35.1,28.0,76,30.33,10.0,Calm,Calm,-,N/A,,Clear,0,2012-11-16 04:54:00